Baker, OR

12:45 PM PST on February 19, 2018 (GMT -0800)
Baker City Municipal

Weather History for KBKE - November, 2013

Change the Weather History Date:

Sunday, November 3, 2013

  Actual Average Record
Temperature  
Mean Temperature 35 °F 38 °F  
Max Temperature 44 °F 51 °F 68 °F (1975)
Min Temperature 26 °F 25 °F 2 °F (2002)
Degree Days  
Heating Degree Days 30 27  
Month to date heating degree days 83 80  
Since 1 July heating degree days 1074 1159  
Cooling Degree Days 0 0  
Month to date cooling degree days 0 0  
Year to date cooling degree days 258 169  
Moisture  
Dew Point 24 °F    
Average Humidity 68    
Maximum Humidity 92    
Minimum Humidity 43    
Precipitation  
Precipitation T in 0.03 in 0.58 in (1944)
Month to date precipitation 0.05 0.08  
Year to date precipitation 7.99 8.33  
Sea Level Pressure  
Sea Level Pressure 30.02 in    
Wind  
Wind Speed 6 mph (East)    
Max Wind Speed 13 mph    
Max Gust Speed 16 mph    
Visibility 10 miles    
Events      
T = Trace of Precipitation, MM = Missing Value Source: NWS Daily Summary

Daily Weather History Graph

Daily Weather History Graph

Search for Another Location

Airport or City:

Trip Planner

Search our weather history database for the weather conditions in past years. The results will help you decide how hot, cold, wet, or windy it might be!

Date:

Astronomy

Nov. 03, 2013 Rise Set
Actual Time 6:32 AM PST 4:36 PM PST
Civil Twilight 6:01 AM PST 5:07 PM PST
Nautical Twilight 5:27 AM PST 5:41 PM PST
Astronomical Twilight 4:52 AM PST 6:15 PM PST
Moon 6:42 AM PST (11/3) 4:53 PM PST (11/3)
Length of Visible Light 11h 05m
Length of Day
10h 03m
New Moon, 0% of the Moon is Illuminated
Nov 3
New Moon
Nov 9
First Quarter
Nov 17
Full
Nov 25
Last Quarter
Dec 2
New

Hourly Weather History & Observations

Time (PST) Temp. Windchill Dew Point Humidity Pressure Visibility Wind Dir Wind Speed Gust Speed Precip Events Conditions
12:53 AM 28.0 °F 20.0 °F 21.9 °F 78% 29.96 in 10.0 mi ESE 8.1 mph - N/A   Mostly Cloudy
1:53 AM 30.0 °F 23.2 °F 21.9 °F 72% 29.94 in 10.0 mi NNE 6.9 mph - N/A   Overcast
1:53 AM 28.0 °F 20.0 °F 21.0 °F 75% 29.94 in 10.0 mi ENE 8.1 mph - N/A   Scattered Clouds
2:53 AM 30.0 °F 24.1 °F 21.9 °F 72% 29.94 in 10.0 mi ENE 5.8 mph - N/A   Mostly Cloudy
3:53 AM 26.1 °F 18.4 °F 21.0 °F 81% 29.96 in 10.0 mi ENE 6.9 mph - N/A   Mostly Cloudy
4:53 AM 26.1 °F 20.5 °F 19.9 °F 78% 29.98 in 10.0 mi East 4.6 mph - N/A   Partly Cloudy
5:53 AM 32.0 °F 25.6 °F 23.0 °F 69% 29.99 in 10.0 mi SSE 6.9 mph - N/A   Mostly Cloudy
6:53 AM 28.9 °F 22.8 °F 26.1 °F 89% 30.00 in 10.0 mi SE 5.8 mph - N/A   Overcast
7:53 AM 33.1 °F 27.7 °F 28.0 °F 82% 30.01 in 10.0 mi South 5.8 mph - N/A   Overcast
8:53 AM 36.0 °F 33.3 °F 26.1 °F 67% 30.02 in 10.0 mi Variable 3.5 mph - N/A   Overcast
9:53 AM 39.0 °F 34.8 °F 25.0 °F 57% 30.04 in 10.0 mi SSW 5.8 mph - N/A   Mostly Cloudy
10:53 AM 41.0 °F 37.1 °F 25.0 °F 53% 30.04 in 10.0 mi Variable 5.8 mph - N/A   Clear
11:53 AM 41.0 °F 35.8 °F 23.0 °F 49% 30.03 in 10.0 mi SSW 8.1 mph - N/A   Overcast
12:53 PM 41.0 °F 35.8 °F 25.0 °F 53% 30.03 in 10.0 mi NNE 8.1 mph - N/A   Overcast
1:53 PM 39.9 °F 35.1 °F 23.0 °F 51% 30.03 in 10.0 mi ESE 6.9 mph - 0.00 in   Overcast
2:53 PM 42.1 °F 39.2 °F 21.9 °F 45% 30.04 in 10.0 mi Variable 4.6 mph - N/A   Mostly Cloudy
3:53 PM 37.9 °F 35.5 °F 23.0 °F 55% 30.05 in 10.0 mi South 3.5 mph - N/A   Mostly Cloudy
4:53 PM 36.0 °F 29.6 °F 23.0 °F 59% 30.07 in 10.0 mi NW 8.1 mph - N/A   Overcast
5:53 PM 36.0 °F 29.0 °F 25.0 °F 64% 30.06 in 10.0 mi NW 9.2 mph - N/A   Overcast
6:53 PM 33.1 °F 26.9 °F 26.1 °F 75% 30.09 in 10.0 mi SW 6.9 mph - N/A   Overcast
7:53 PM 27.0 °F - 24.1 °F 89% 30.08 in 10.0 mi Calm Calm - N/A   Overcast
8:53 PM 33.1 °F 27.7 °F 26.1 °F 75% 30.06 in 10.0 mi East 5.8 mph - N/A   Overcast
9:53 PM 32.0 °F 27.5 °F 27.0 °F 82% 30.06 in 10.0 mi ENE 4.6 mph - N/A   Overcast
10:53 PM 30.0 °F 26.5 °F 26.1 °F 85% 30.06 in 10.0 mi NW 3.5 mph - N/A   Overcast